Perry, FL

6:12 AM EDT on March 26, 2017 (GMT -0400)
Perry

Weather History for K40J - May, 2013

Change the Weather History Date:

Wednesday, May 22, 2013

  Actual Average (KVLD) Record (KVLD)
Temperature  
Mean Temperature 76 °F -  
Max Temperature 91 °F 86 °F 99 °F (2011)
Min Temperature 62 °F 61 °F 54 °F (2002)
Cooling Degree Days 11    
Growing Degree Days 26 (Base 50)    
Moisture  
Dew Point 66 °F    
Average Humidity 76    
Maximum Humidity 100    
Minimum Humidity 40    
Precipitation  
Precipitation 0.01 in - - ()
Sea Level Pressure  
Sea Level Pressure 29.96 in    
Wind  
Wind Speed 2 mph (SW)    
Max Wind Speed 13 mph    
Max Gust Speed -    
Visibility 8 miles    
Events Fog    
Averages and records for this station are not official NWS values.
T = Trace of Precipitation, MM = Missing Value Source: NWS Daily Summary

Daily Weather History Graph

Daily Weather History Graph

Search for Another Location

Airport or City:

Trip Planner

Search our weather history database for the weather conditions in past years. The results will help you decide how hot, cold, wet, or windy it might be!

Date:

Astronomy

May. 22, 2013 Rise Set
Actual Time 6:36 AM EDT 8:25 PM EDT
Civil Twilight 6:10 AM EDT 8:52 PM EDT
Nautical Twilight 5:38 AM EDT 9:24 PM EDT
Astronomical Twilight 5:04 AM EDT 9:58 PM EDT
Moon 5:55 PM EDT (5/22) 4:28 AM EDT (5/22)
Length of Visible Light 14h 41m
Length of Day
13h 48m
Waxing Gibbous, 91% of the Moon is Illuminated
May 22
Waxing Gibbous
May 25
Full
May 31
Last Quarter
Jun 8
New
Jun 16
First Quarter

Hourly Weather History & Observations

Time (EDT) Temp. Heat Index Dew Point Humidity Pressure Visibility Wind Dir Wind Speed Gust Speed Precip Events Conditions
12:15 AM 68.0 °F - 64.4 °F 88% 29.99 in 10.0 mi Calm Calm - N/A   Clear
12:35 AM 66.2 °F - 64.4 °F 94% 30.00 in 10.0 mi WNW 3.5 mph - N/A   Clear
12:53 AM 66.9 °F - 64.9 °F 93% 29.98 in - Calm Calm - N/A   Unknown
12:55 AM 64.4 °F - 62.6 °F 94% 29.99 in 7.0 mi Calm Calm - N/A   Clear
1:15 AM 64.4 °F - 62.6 °F 94% 29.99 in 5.0 mi Calm Calm - N/A   Clear
1:35 AM 64.4 °F - 62.6 °F 94% 29.98 in 7.0 mi Calm Calm - N/A   Clear
1:53 AM 66.0 °F - 63.0 °F 90% 29.96 in - Calm Calm - N/A   Unknown
1:55 AM 64.4 °F - 62.6 °F 94% 29.97 in 2.5 mi Calm Calm - N/A   Clear
2:15 AM 64.4 °F - 62.6 °F 94% 29.97 in 4.0 mi Calm Calm - N/A   Clear
2:35 AM 64.4 °F - 62.6 °F 94% 29.96 in 5.0 mi Calm Calm - N/A   Clear
2:53 AM 66.9 °F - 64.0 °F 90% 29.95 in - Calm Calm - N/A   Unknown
2:55 AM 64.4 °F - 62.6 °F 94% 29.97 in 5.0 mi Calm Calm - N/A   Clear
3:15 AM 62.6 °F - 62.6 °F 100% 29.96 in 1.0 mi Calm Calm - N/A   Mist
3:53 AM 64.9 °F - 63.0 °F 93% 29.94 in - Calm Calm - N/A   Unknown
4:53 AM 64.0 °F - 62.1 °F 93% 29.94 in - Calm Calm - N/A   Unknown
5:53 AM 66.0 °F - 63.0 °F 90% 29.95 in - Calm Calm - N/A   Unknown
6:15 AM 64.4 °F - 62.6 °F 94% 29.97 in 0.8 mi Calm Calm - N/A   Overcast
6:35 AM 64.4 °F - 62.6 °F 94% 29.97 in 0.5 mi Calm Calm - N/A Fog Fog
6:53 AM 66.0 °F - 64.0 °F 93% 29.96 in - Calm Calm - 0.01 in   Unknown
6:55 AM 64.4 °F - 62.6 °F 94% 29.98 in 0.5 mi Calm Calm - N/A Fog Fog
7:15 AM 64.4 °F - 62.6 °F 94% 29.98 in 0.8 mi Calm Calm - N/A   Overcast
7:35 AM 64.4 °F - 64.4 °F 100% 29.99 in 0.8 mi Calm Calm - N/A   Overcast
7:53 AM 66.9 °F - 64.9 °F 93% 29.98 in - Calm Calm - N/A   Unknown
7:55 AM 64.4 °F - 64.4 °F 100% 29.99 in 2.0 mi Calm Calm - N/A   Overcast
8:15 AM 66.2 °F - 64.4 °F 94% 30.00 in 5.0 mi Calm Calm - N/A   Mostly Cloudy
8:35 AM 68.0 °F - 68.0 °F 100% 30.00 in 7.0 mi Calm Calm - N/A   Scattered Clouds
8:53 AM 73.0 °F - 68.0 °F 84% 29.98 in - NE 3.5 mph - N/A   Unknown
8:55 AM 69.8 °F - 68.0 °F 94% 30.00 in 7.0 mi Calm Calm - N/A   Clear
9:15 AM 71.6 °F - 69.8 °F 94% 30.00 in 10.0 mi East 4.6 mph - N/A   Clear
9:35 AM 71.6 °F - 69.8 °F 94% 30.00 in 7.0 mi Calm Calm - N/A   Clear
9:53 AM 77.0 °F - 69.1 °F 76% 29.99 in - Calm Calm - N/A   Unknown
9:55 AM 73.4 °F - 69.8 °F 88% 30.01 in 7.0 mi Calm Calm - N/A   Clear
10:15 AM 77.0 °F - 69.8 °F 78% 30.01 in 10.0 mi Calm Calm - N/A   Scattered Clouds
10:35 AM 77.0 °F - 69.8 °F 78% 30.00 in 10.0 mi Calm Calm - N/A   Mostly Cloudy
10:53 AM 79.0 °F - 66.9 °F 66% 30.00 in - Calm Calm - N/A   Unknown
10:55 AM 77.0 °F - 68.0 °F 74% 30.01 in 10.0 mi Calm Calm - N/A   Mostly Cloudy
11:15 AM 78.8 °F - 68.0 °F 69% 30.01 in 10.0 mi Calm Calm - N/A   Mostly Cloudy
11:35 AM 78.8 °F - 68.0 °F 69% 30.01 in 10.0 mi Calm Calm - N/A   Mostly Cloudy
11:53 AM 81.0 °F 83.8 °F 68.0 °F 65% 30.00 in - NNW 3.5 mph - N/A   Unknown
11:55 AM 78.8 °F - 68.0 °F 69% 30.01 in 10.0 mi NNW 3.5 mph - N/A   Overcast
12:15 PM 78.8 °F - 68.0 °F 69% 30.01 in 10.0 mi Calm Calm - N/A   Overcast
12:35 PM 80.6 °F 82.7 °F 66.2 °F 61% 30.01 in 10.0 mi Calm Calm - N/A   Overcast
12:53 PM 82.0 °F 84.1 °F 66.0 °F 58% 29.99 in - Calm Calm - N/A   Unknown
12:55 PM 80.6 °F 82.7 °F 66.2 °F 61% 30.00 in 10.0 mi Calm Calm - N/A   Mostly Cloudy
1:15 PM 82.4 °F 83.9 °F 64.4 °F 54% 30.00 in 10.0 mi Calm Calm - N/A   Mostly Cloudy
1:35 PM 82.4 °F 83.9 °F 64.4 °F 54% 29.99 in 10.0 mi NNW 4.6 mph - N/A   Mostly Cloudy
1:53 PM 87.1 °F 89.9 °F 66.9 °F 51% 29.96 in - NNE 3.5 mph - N/A   Unknown
1:55 PM 82.4 °F 83.9 °F 64.4 °F 54% 29.98 in 10.0 mi North 3.5 mph - N/A   Scattered Clouds
2:15 PM 86.0 °F 86.6 °F 62.6 °F 45% 29.97 in 10.0 mi Calm Calm - N/A   Scattered Clouds
2:35 PM 86.0 °F 87.3 °F 64.4 °F 48% 29.96 in 10.0 mi NNW 3.5 mph - N/A   Clear
2:53 PM 90.0 °F 91.7 °F 64.9 °F 43% 29.94 in - Calm Calm - N/A   Unknown
2:55 PM 86.0 °F 86.6 °F 62.6 °F 45% 29.95 in 10.0 mi Calm Calm - N/A   Clear
3:15 PM 86.0 °F 86.6 °F 62.6 °F 45% 29.95 in 10.0 mi NW 5.8 mph - N/A   Scattered Clouds
3:35 PM 87.8 °F 88.5 °F 62.6 °F 43% 29.93 in 10.0 mi North 3.5 mph - N/A   Scattered Clouds
3:53 PM 89.1 °F 90.3 °F 64.0 °F 43% 29.91 in - West 3.5 mph - N/A   Unknown
3:55 PM 86.0 °F 86.6 °F 62.6 °F 45% 29.92 in 10.0 mi Calm Calm - N/A   Clear
4:15 PM 87.8 °F 87.6 °F 60.8 °F 40% 29.91 in 10.0 mi East 4.6 mph - N/A   Mostly Cloudy
4:35 PM 86.0 °F 86.1 °F 60.8 °F 43% 29.91 in 10.0 mi Calm Calm - N/A   Scattered Clouds
4:53 PM 89.1 °F 93.7 °F 69.1 °F 52% 29.89 in - SW 12.7 mph - N/A   Unknown
4:55 PM 87.8 °F 90.4 °F 66.2 °F 49% 29.90 in 10.0 mi SW 11.5 mph - N/A   Scattered Clouds
5:15 PM 82.4 °F 86.3 °F 69.8 °F 66% 29.91 in 7.0 mi SW 9.2 mph - N/A   Mostly Cloudy
5:35 PM 80.6 °F 83.9 °F 69.8 °F 70% 29.91 in 10.0 mi SW 5.8 mph - N/A   Clear
5:53 PM 87.1 °F 92.8 °F 71.1 °F 59% 29.89 in - WSW 6.9 mph - N/A   Unknown
5:55 PM 86.0 °F 90.4 °F 69.8 °F 58% 29.90 in 10.0 mi WSW 6.9 mph - N/A   Clear
6:15 PM 84.2 °F 88.4 °F 69.8 °F 62% 29.90 in 10.0 mi SW 5.8 mph - N/A   Scattered Clouds
6:35 PM 82.4 °F 86.3 °F 69.8 °F 66% 29.90 in 10.0 mi SW 9.2 mph - N/A   Clear
6:53 PM 82.9 °F 87.0 °F 70.0 °F 65% 29.88 in - SW 9.2 mph - N/A   Unknown
6:55 PM 82.4 °F 86.3 °F 69.8 °F 66% 29.90 in 10.0 mi SW 8.1 mph - N/A   Clear
7:15 PM 80.6 °F 83.9 °F 69.8 °F 70% 29.91 in 10.0 mi WSW 9.2 mph - N/A   Clear
7:35 PM 78.8 °F - 69.8 °F 74% 29.91 in 7.0 mi WSW 8.1 mph - N/A   Clear
7:53 PM 80.1 °F 82.9 °F 69.1 °F 69% 29.90 in - WSW 8.1 mph - N/A   Unknown
7:55 PM 78.8 °F - 69.8 °F 74% 29.91 in 10.0 mi WSW 6.9 mph - N/A   Clear
8:15 PM 77.0 °F - 69.8 °F 78% 29.92 in 10.0 mi WSW 4.6 mph - N/A   Clear
8:35 PM 77.0 °F - 69.8 °F 78% 29.92 in 10.0 mi Calm Calm - N/A   Clear
8:53 PM 78.1 °F - 69.1 °F 74% 29.93 in - ENE 3.5 mph - N/A   Unknown
8:55 PM 75.2 °F - 69.8 °F 83% 29.95 in 10.0 mi Calm Calm - N/A   Scattered Clouds
9:15 PM 77.0 °F - 69.8 °F 78% 29.95 in 10.0 mi Calm Calm - N/A   Mostly Cloudy
9:35 PM 77.0 °F - 69.8 °F 78% 29.95 in 10.0 mi Calm Calm - N/A   Overcast
9:53 PM 77.0 °F - 69.1 °F 76% 29.94 in - SSE 5.8 mph - N/A   Unknown
9:55 PM 75.2 °F - 69.8 °F 83% 29.96 in 10.0 mi SSE 5.8 mph - N/A   Mostly Cloudy
10:15 PM 73.4 °F - 69.8 °F 88% 29.96 in 10.0 mi SSE 3.5 mph - N/A   Scattered Clouds
10:35 PM 73.4 °F - 69.8 °F 88% 29.96 in 10.0 mi Calm Calm - N/A   Clear
10:53 PM 75.0 °F - 69.1 °F 82% 29.95 in - South 3.5 mph - N/A   Unknown
10:55 PM 71.6 °F - 69.8 °F 94% 29.96 in 10.0 mi South 3.5 mph - N/A   Clear
11:15 PM 71.6 °F - 69.8 °F 94% 29.97 in 10.0 mi SE 5.8 mph - N/A   Clear
11:35 PM 71.6 °F - 68.0 °F 88% 29.96 in 10.0 mi SSE 3.5 mph - N/A   Clear
11:53 PM 73.0 °F - 68.0 °F 84% 29.94 in - SSE 3.5 mph - N/A   Unknown
11:55 PM 71.6 °F - 68.0 °F 88% 29.95 in 10.0 mi Calm Calm - N/A   Clear